Weather History for Huntingburg, IN

Change the Weather History Date:

Wednesday, February 6, 2013

  Actual Average Record
Temperature  
Mean Temperature 36 °F -  
Max Temperature 44 °F 42 °F 64 °F (1999)
Min Temperature 28 °F 27 °F 6 °F (2014)
Degree Days  
Heating Degree Days 29    
Moisture  
Dew Point 28 °F    
Average Humidity 72    
Maximum Humidity 86    
Minimum Humidity 57    
Precipitation  
Precipitation 0.00 in - - ()
Sea Level Pressure  
Sea Level Pressure 30.19 in    
Wind  
Wind Speed 7 mph (North)    
Max Wind Speed 12 mph    
Max Gust Speed 17 mph    
Visibility 10 miles    
Events      
Averages and records for this station are not official NWS values.
T = Trace of Precipitation, MM = Missing Value Source: NWS Daily Summary

Daily Weather History Graph

Daily Weather History Graph

Search for Another Location

Airport:

Trip Planner

Search our weather history database for the weather conditions in past years. The results will help you decide how hot, cold, wet, or windy it might be!

Date:

Astronomy

Feb. 06, 2013 Rise Set
Actual Time 7:47 AM EST 6:16 PM EST
Civil Twilight 7:20 AM EST 6:44 PM EST
Nautical Twilight 6:48 AM EST 7:15 PM EST
Astronomical Twilight 6:18 AM EST 7:46 PM EST
Moon 4:29 AM EST (2/6) 2:35 PM EST (2/6)
Length of Visible Light 11h 23m
Length of Day
10h 28m
Waning Crescent, 17% of the Moon is Illuminated
Feb 6
Waning Crescent
Feb 10
New
Feb 17
First Quarter
Feb 25
Full
Mar 4
Last Quarter

Hourly Weather History & Observations

Time (EST) Temp. Windchill Dew Point Humidity Pressure Visibility Wind Dir Wind Speed Gust Speed Precip Events Conditions
12:15 AM 37.4 °F 29.8 °F 30.2 °F 75% 30.08 in 10.0 mi NNW 11.5 mph - N/A   Clear
12:35 AM 37.4 °F 30.8 °F 30.2 °F 75% 30.09 in 10.0 mi NNW 9.2 mph - N/A   Clear
12:55 AM 37.4 °F 30.8 °F 30.2 °F 75% 30.10 in 10.0 mi NNW 9.2 mph - N/A   Clear
1:15 AM 35.6 °F 28.6 °F 30.2 °F 81% 30.10 in 10.0 mi NNW 9.2 mph - N/A   Clear
1:35 AM 35.6 °F 27.5 °F 28.4 °F 75% 30.10 in 10.0 mi NNW 11.5 mph - N/A   Clear
1:55 AM 35.6 °F 27.5 °F 28.4 °F 75% 30.11 in 10.0 mi NNW 11.5 mph 17.3 mph N/A   Clear
2:15 AM 35.6 °F 29.2 °F 28.4 °F 75% 30.12 in 10.0 mi NNW 8.1 mph - N/A   Clear
2:35 AM 33.8 °F 27.0 °F 28.4 °F 81% 30.13 in 10.0 mi NNW 8.1 mph - N/A   Clear
2:55 AM 33.8 °F 27.7 °F 28.4 °F 81% 30.14 in 10.0 mi NNW 6.9 mph - N/A   Clear
3:15 AM 33.8 °F 27.0 °F 26.6 °F 75% 30.15 in 9.0 mi NNW 8.1 mph - N/A   Clear
3:35 AM 33.8 °F 28.6 °F 26.6 °F 75% 30.15 in 8.0 mi NW 5.8 mph - N/A   Clear
3:55 AM 32.0 °F 27.5 °F 26.6 °F 80% 30.15 in 8.0 mi NNW 4.6 mph - N/A   Clear
4:15 AM 30.2 °F 24.3 °F 26.6 °F 86% 30.16 in 8.0 mi NW 5.8 mph - N/A   Clear
4:35 AM 30.2 °F 24.3 °F 26.6 °F 86% 30.16 in 7.0 mi NW 5.8 mph - N/A   Mostly Cloudy
4:55 AM 32.0 °F 26.4 °F 26.6 °F 80% 30.17 in 7.0 mi NW 5.8 mph - N/A   Overcast
5:15 AM 30.2 °F 24.3 °F 26.6 °F 86% 30.17 in 8.0 mi NNW 5.8 mph - N/A   Scattered Clouds
5:35 AM 30.2 °F 23.4 °F 26.6 °F 86% 30.18 in 10.0 mi NNW 6.9 mph - N/A   Clear
5:55 AM 30.2 °F 24.3 °F 24.8 °F 80% 30.18 in 10.0 mi NNW 5.8 mph - N/A   Clear
6:15 AM 30.2 °F 25.4 °F 24.8 °F 80% 30.19 in 10.0 mi NNW 4.6 mph - N/A   Clear
6:35 AM 30.2 °F 24.3 °F 24.8 °F 80% 30.19 in 10.0 mi North 5.8 mph - N/A   Clear
6:55 AM 30.2 °F 23.4 °F 24.8 °F 80% 30.19 in 10.0 mi North 6.9 mph - N/A   Clear
7:15 AM 28.4 °F 22.2 °F 23.0 °F 80% 30.20 in 10.0 mi NNE 5.8 mph - N/A   Clear
7:35 AM 28.4 °F - 23.0 °F 80% 30.22 in 10.0 mi Calm Calm - N/A   Clear
7:55 AM 28.4 °F 24.6 °F 23.0 °F 80% 30.23 in 9.0 mi NE 3.5 mph - N/A   Clear
8:15 AM 28.4 °F 24.6 °F 24.8 °F 86% 30.23 in 9.0 mi ENE 3.5 mph - N/A   Clear
8:35 AM 28.4 °F - 23.0 °F 80% 30.23 in 9.0 mi Calm Calm - N/A   Clear
9:15 AM 30.2 °F 26.7 °F 24.8 °F 80% 30.25 in 9.0 mi ENE 3.5 mph - N/A   Clear
9:35 AM 32.0 °F 24.8 °F 24.8 °F 75% 30.25 in 10.0 mi ENE 8.1 mph - N/A   Clear
9:55 AM 33.8 °F 27.0 °F 24.8 °F 70% 30.25 in 10.0 mi NE 8.1 mph - N/A   Clear
10:35 AM 35.6 °F 29.2 °F 26.6 °F 70% 30.27 in 10.0 mi East 8.1 mph - N/A   Clear
11:35 AM 35.6 °F 29.2 °F 26.6 °F 70% 30.28 in 10.0 mi ENE 8.1 mph - N/A   Partly Cloudy
11:55 AM 37.4 °F 32.8 °F 26.6 °F 65% 30.28 in 10.0 mi NNE 5.8 mph - N/A   Scattered Clouds
12:15 PM 37.4 °F 32.8 °F 26.6 °F 65% 30.27 in 10.0 mi NE 5.8 mph - N/A   Partly Cloudy
12:35 PM 39.2 °F 35.0 °F 28.4 °F 65% 30.27 in 10.0 mi NNW 5.8 mph - N/A   Clear
12:55 PM 39.2 °F 37.0 °F 28.4 °F 65% 30.25 in 10.0 mi North 3.5 mph - N/A   Clear
1:15 PM 39.2 °F 33.6 °F 28.4 °F 65% 30.25 in 10.0 mi NNW 8.1 mph - N/A   Clear
1:35 PM 39.2 °F 37.0 °F 28.4 °F 65% 30.25 in 10.0 mi WSW 3.5 mph - N/A   Clear
1:55 PM 39.2 °F 35.0 °F 28.4 °F 65% 30.25 in 10.0 mi ENE 5.8 mph - N/A   Clear
2:15 PM 41.0 °F - 28.4 °F 61% 30.25 in 10.0 mi Calm Calm - N/A   Partly Cloudy
2:35 PM 42.8 °F 41.1 °F 30.2 °F 61% 30.24 in 10.0 mi West 3.5 mph - N/A   Scattered Clouds
2:55 PM 42.8 °F 40.1 °F 30.2 °F 61% 30.23 in 10.0 mi WSW 4.6 mph - N/A   Partly Cloudy
3:15 PM 42.8 °F 41.1 °F 30.2 °F 61% 30.23 in 10.0 mi West 3.5 mph - N/A   Clear
3:35 PM 42.8 °F - 30.2 °F 61% 30.23 in 10.0 mi Calm Calm - N/A   Clear
3:55 PM 42.8 °F - 30.2 °F 61% 30.21 in 10.0 mi Calm Calm - N/A   Clear
4:15 PM 42.8 °F - 30.2 °F 61% 30.20 in 10.0 mi Calm Calm - N/A   Clear
4:35 PM 42.8 °F 39.3 °F 28.4 °F 57% 30.19 in 10.0 mi ENE 5.8 mph - N/A   Clear
5:15 PM 42.8 °F 40.1 °F 30.2 °F 61% 30.19 in 10.0 mi NE 4.6 mph - N/A   Clear
5:35 PM 44.6 °F 42.2 °F 30.2 °F 57% 30.20 in 10.0 mi North 4.6 mph - N/A   Clear
5:55 PM 42.8 °F 41.1 °F 30.2 °F 61% 30.20 in 10.0 mi North 3.5 mph - N/A   Clear
6:15 PM 39.2 °F 35.0 °F 28.4 °F 65% 30.19 in 10.0 mi North 5.8 mph - N/A   Clear
6:35 PM 39.2 °F 35.9 °F 28.4 °F 65% 30.20 in 10.0 mi North 4.6 mph - N/A   Clear
6:55 PM 39.2 °F - 28.4 °F 65% 30.21 in 10.0 mi Calm Calm - N/A   Clear
7:15 PM 37.4 °F - 28.4 °F 70% 30.22 in 10.0 mi Calm Calm - N/A   Clear
7:35 PM 37.4 °F - 28.4 °F 70% 30.21 in 10.0 mi Calm Calm - N/A   Clear
7:55 PM 35.6 °F 29.9 °F 28.4 °F 75% 30.20 in 10.0 mi ENE 6.9 mph - N/A   Clear
8:15 PM 35.6 °F 30.7 °F 28.4 °F 75% 30.19 in 10.0 mi NE 5.8 mph - N/A   Clear
8:35 PM 35.6 °F 30.7 °F 28.4 °F 75% 30.19 in 10.0 mi NNE 5.8 mph - N/A   Clear
8:55 PM 37.4 °F 31.4 °F 28.4 °F 70% 30.18 in 10.0 mi East 8.1 mph - N/A   Clear
9:15 PM 37.4 °F 30.8 °F 28.4 °F 70% 30.18 in 10.0 mi East 9.2 mph - N/A   Clear
9:35 PM 37.4 °F 31.4 °F 28.4 °F 70% 30.19 in 10.0 mi East 8.1 mph - N/A   Clear
9:55 PM 35.6 °F 29.9 °F 28.4 °F 75% 30.19 in 10.0 mi East 6.9 mph - N/A   Clear
10:15 PM 35.6 °F 29.9 °F 28.4 °F 75% 30.20 in 10.0 mi East 6.9 mph - N/A   Clear
10:35 PM 35.6 °F 29.9 °F 28.4 °F 75% 30.19 in 10.0 mi East 6.9 mph - N/A   Clear
11:15 PM 35.6 °F 29.2 °F 28.4 °F 75% 30.17 in 10.0 mi East 8.1 mph - N/A   Clear
11:35 PM 35.6 °F 29.9 °F 28.4 °F 75% 30.18 in 10.0 mi East 6.9 mph - N/A   Clear
11:55 PM 35.6 °F 29.9 °F 28.4 °F 75% 30.16 in 10.0 mi East 6.9 mph - N/A   Clear